[TLELIST] Archives

 

[TLELIST] Current TLEs

February 8th 2025 PDT

HST 1 20580U 90037B 25038.86742152 .00008823 00000-0 35696-3 0 9990 2 20580 28.4660 200.1040 0002946 90.6775 269.4157 15.22909458712936 ISS (ZARYA) 1 25544U 98067A 25038.99640861 .00015732 00000-0 28399-3 0 9993 2 25544 51.6375 226.9065 0003507 286.8821 210.2731 15.49905550495129 CXO 1 25867U 99040B 25037.21592970 .00000716 00000-0 00000-0 0 9996 2 25867 46.5701 136.5229 8614898 306.8174 0.4690 0.37805710 15459 ...Continue Reading

[TLELIST] Current TLEs

February 7th 2025 PDT

HST 1 20580U 90037B 25037.88443145 .00009071 00000-0 36740-3 0 9998 2 20580 28.4660 206.7437 0003007 80.2660 279.8274 15.22892614712788 ISS (ZARYA) 1 25544U 98067A 25037.96095632 .00015139 00000-0 27395-3 0 9995 2 25544 51.6373 232.0378 0003474 282.9273 192.9924 15.49869763494969 CXO 1 25867U 99040B 25037.21592970 .00000716 00000-0 00000-0 0 9996 2 25867 46.5701 136.5229 8614898 306.8174 0.4690 0.37805710 15459 ...Continue Reading

[TLELIST] Current TLEs

February 6th 2025 PDT

HST 1 20580U 90037B 25036.90142931 .00010273 00000-0 41732-3 0 9992 2 20580 28.4662 213.3824 0003027 71.3788 288.7134 15.22878163712639 ISS (ZARYA) 1 25544U 98067A 25036.90853096 .00016894 00000-0 30505-3 0 9990 2 25544 51.6352 237.2553 0003739 277.2779 82.7785 15.49838227494805 CXO 1 25867U 99040B 25037.21592970 .00000716 00000-0 00000-0 0 9996 2 25867 46.5701 136.5229 8614898 306.8174 0.4690 0.37805710 15459 ...Continue Reading

[TLELIST] [TLELIST] Current TLEs

February 6th 2025 PDT

HST 1 20580U 90037B 25036.90142931 .00010273 00000-0 41732-3 0 9992 2 20580 28.4662 213.3824 0003027 71.3788 288.7134 15.22878163712639 ISS (ZARYA) 1 25544U 98067A 25036.90853096 .00016894 00000-0 30505-3 0 9990 2 25544 51.6352 237.2553 0003739 277.2779 82.7785 15.49838227494805 CXO 1 25867U 99040B 25037.21592970 .00000716 00000-0 00000-0 0 9996 2 25867 46.5701 136.5229 8614898 306.8174 0.4690 0.37805710 15459 ...Continue Reading

[TLELIST] Current TLEs

February 5th 2025 PDT

HST 1 20580U 90037B 25036.18055468 .00009288 00000-0 37671-3 0 9991 2 20580 28.4665 218.2510 0002946 65.3833 294.7067 15.22863392712787 ISS (ZARYA) 1 25544U 98067A 25036.03454442 .00016993 00000-0 30705-3 0 9998 2 25544 51.6377 241.5810 0003477 275.1739 245.3794 15.49813608494665 CXO 1 25867U 99040B 25037.21592970 .00000716 00000-0 00000-0 0 9996 2 25867 46.5701 136.5229 8614898 306.8174 0.4690 0.37805710 15459 ...Continue Reading

[TLELIST] Current TLEs

February 4th 2025 PDT

HST 1 20580U 90037B 25034.93539268 .00009395 00000-0 38141-3 0 9999 2 20580 28.4667 226.6599 0002892 54.4457 305.6407 15.22840268712596 ISS (ZARYA) 1 25544U 98067A 25035.06542019 .00017864 00000-0 32270-3 0 9995 2 25544 51.6385 246.3830 0003595 271.3736 238.6066 15.49782580494510 CXO 1 25867U 99040B 25037.21592970 .00000716 00000-0 00000-0 0 9996 2 25867 46.5701 136.5229 8614898 306.8174 0.4690 0.37805710 15459 ...Continue Reading

[TLELIST] Current TLEs

February 4th 2025 PDT

HST 1 20580U 90037B 25034.93539268 .00009395 00000-0 38141-3 0 9999 2 20580 28.4667 226.6599 0002892 54.4457 305.6407 15.22840268712596 ISS (ZARYA) 1 25544U 98067A 25035.06542019 .00017864 00000-0 32270-3 0 9995 2 25544 51.6385 246.3830 0003595 271.3736 238.6066 15.49782580494510 CXO 1 25867U 99040B 25037.21592970 .00000716 00000-0 00000-0 0 9996 2 25867 46.5701 136.5229 8614898 306.8174 0.4690 0.37805710 15459 ...Continue Reading

[TLELIST] Current TLEs

February 3rd 2025 PDT

HST 1 20580U 90037B 25033.88682078 .00010824 00000-0 44093-3 0 9992 2 20580 28.4670 233.7411 0002847 45.2106 314.8719 15.22820558712173 ISS (ZARYA) 1 25544U 98067A 25034.07131547 .00016284 00000-0 29531-3 0 9996 2 25544 51.6354 251.3091 0003822 264.9942 95.0610 15.49744873494367 CXO 1 25867U 99040B 25034.57271092 .00000777 00000-0 00000+0 0 9997 2 25867 46.4752 136.7449 8617405 306.6835 0.7290 0.37806517 26591 ...Continue Reading

[TLELIST] Current TLEs

February 2nd 2025 PDT

HST 1 20580U 90037B 25032.77269642 .00010738 00000-0 43766-3 0 9997 2 20580 28.4674 241.2648 0002816 33.5318 326.5454 15.22797315712006 ISS (ZARYA) 1 25544U 98067A 25032.73245786 .00013805 00000-0 25233-3 0 9999 2 25544 51.6350 257.9368 0003396 260.4392 185.1884 15.49668340494153 CXO 1 25867U 99040B 25034.57271092 .00000777 00000-0 00000+0 0 9997 2 25867 46.4752 136.7449 8617405 306.6835 0.7290 0.37806517 26591 ...Continue Reading

[TLELIST] Current TLEs

February 1st 2025 PDT

HST 1 20580U 90037B 25031.92070714 .00009523 00000-0 38741-3 0 9990 2 20580 28.4675 247.0180 0002785 25.3951 334.6780 15.22779462711878 ISS (ZARYA) 1 25544U 98067A 25032.16305314 .00016120 00000-0 28210-3 0 9991 2 25544 51.6379 260.7592 0002069 153.7231 352.3252 15.50771351494063 CXO 1 25867U 99040B 25034.57271092 .00000777 00000-0 00000+0 0 9997 2 25867 46.4752 136.7449 8617405 306.6835 0.7290 0.37806517 26591 ...Continue Reading
  • This mailing list is a public mailing list - anyone may join or leave, at any time.
  • This mailing list is announce-only.

International Space Station (ISS) / Hubble Space Telescope (HST) / Chandra X-Ray Observatory Orbital Data via EMAIL

Privacy Policy:

Private list